Lapse_Rate
5.6 5.7 5.8 5.7 5.7 5.9 6.4 6.9 6.7 6.5 6.3 6.6 6.8 6.8 6.9 7.0 6.9 6.8 6.5 6.5 6.6 6.4 6.2 6.3 6.3 6.2 6.3 6.3 6.3 6.4 6.3 6.3 6.2 6.0 5.8 5.8 5.8 5.7 5.6 5.5 5.4 5.4 5.5 5.6 5.6 5.6 5.7 5.6 5.7
5.5 5.5 5.5 5.6 5.6 5.8 6.6 6.8 6.5 6.3 6.4 6.7 6.6 6.8 7.0 7.0 6.7 6.8 6.5 6.5 6.6 6.5 6.4 6.3 6.4 6.2 6.3 6.3 6.3 6.4 6.3 6.3 6.1 5.9 5.6 5.5 5.6 5.6 5.5 5.5 5.6 5.7 5.7 5.7 5.6 5.6 5.6 5.7 5.7
5.4 5.5 5.4 5.3 5.5 6.1 6.5 6.1 6.2 6.3 6.4 6.4 6.4 6.6 7.0 6.9 6.7 6.8 6.6 6.4 6.6 6.5 6.3 6.4 6.4 6.4 6.4 6.5 6.3 6.2 6.3 6.2 6.0 5.8 5.7 5.6 5.5 5.6 5.7 5.7 5.8 5.8 5.7 5.6 5.6 5.6 5.7 5.6 5.6
5.4 5.3 5.2 5.4 5.7 7.3 7.5 7.0 6.7 6.3 6.5 6.5 6.4 6.3 6.7 6.8 6.6 6.8 6.6 6.5 6.5 6.6 6.3 6.3 6.4 6.4 6.4 6.2 6.2 6.0 6.1 6.0 5.9 5.7 5.7 5.7 5.8 5.8 5.9 5.9 5.9 5.9 5.8 5.7 5.7 5.6 5.6 5.6 5.6
5.6 5.4 5.2 5.4 5.9 7.0 7.6 7.3 7.0 6.6 6.6 6.8 6.5 6.6 6.6 6.7 6.5 6.9 6.7 6.5 6.7 6.4 6.5 6.2 6.3 6.4 6.3 6.2 6.0 5.9 5.9 6.1 6.2 6.1 5.9 5.9 6.0 6.1 6.0 6.0 5.9 5.8 5.7 5.7 5.6 5.6 5.6 5.6 5.7
5.5 5.3 5.2 5.3 5.8 6.6 7.0 7.4 6.7 6.4 6.6 6.5 6.6 6.6 6.7 6.9 6.5 6.6 6.8 6.7 6.5 6.4 6.4 6.4 6.2 6.4 6.4 6.3 6.1 5.9 5.8 5.9 6.2 6.1 6.0 6.0 6.0 6.1 6.0 5.8 5.7 5.6 5.5 5.5 5.6 5.6 5.6 5.7 5.8
5.4 5.2 5.3 5.5 6.0 6.2 6.7 6.7 6.2 6.3 6.2 6.4 6.5 6.5 6.8 6.8 6.6 6.7 6.7 6.8 6.7 6.4 6.4 6.4 6.3 6.2 6.4 6.4 6.3 6.0 5.8 5.8 6.0 6.3 6.1 5.9 5.9 5.9 5.8 5.7 5.6 5.5 5.4 5.4 5.5 5.6 5.6 5.6 5.6
5.4 5.0 5.1 5.3 5.7 6.5 7.1 6.6 6.4 6.4 6.0 6.4 6.2 6.3 6.7 6.9 6.7 6.5 6.7 6.7 6.8 6.6 6.4 6.3 6.3 6.2 6.3 6.5 6.3 5.9 6.0 5.9 5.9 6.2 6.3 6.1 6.0 6.0 5.9 5.8 5.6 5.5 5.4 5.5 5.5 5.6 5.6 5.5 5.4
5.1 4.6 5.0 5.5 5.9 6.4 7.1 6.4 6.0 6.0 6.0 6.2 6.3 6.3 6.5 6.4 6.4 6.4 6.8 6.9 6.8 6.8 6.5 6.5 6.4 6.3 6.2 6.3 6.2 6.0 5.9 5.9 5.8 5.8 6.2 6.2 6.0 6.0 5.9 5.8 5.6 5.6 5.6 5.6 5.6 5.6 5.6 5.7 5.6
4.9 4.7 5.2 5.9 5.8 5.7 6.1 5.9 6.1 5.9 5.7 5.6 5.8 6.0 6.4 6.3 6.4 6.5 6.3 6.7 6.7 6.8 6.6 6.6 6.6 6.6 6.3 6.2 6.0 5.8 5.7 5.8 5.7 5.7 6.0 6.2 6.1 5.9 5.8 5.8 5.8 5.8 5.8 5.6 5.6 5.6 5.7 5.8 5.5
4.9 4.8 5.2 5.1 5.3 5.1 5.2 5.4 5.6 5.6 5.8 6.0 6.0 6.1 6.1 6.5 6.3 6.4 6.3 6.4 6.7 6.6 6.7 6.7 6.7 6.7 6.8 6.4 6.1 6.0 5.8 5.5 5.5 5.6 5.7 6.0 5.9 5.9 5.9 5.8 5.9 5.9 5.9 5.8 5.7 5.7 5.7 5.8 5.6
4.6 4.5 4.7 5.2 5.4 5.2 5.1 5.3 5.6 5.5 5.6 5.6 5.6 5.6 5.8 6.1 6.3 6.3 6.3 6.6 6.5 6.6 6.6 6.5 6.7 6.7 6.8 6.8 6.5 6.0 5.8 5.6 5.5 5.3 5.5 5.8 5.8 5.7 5.7 6.0 6.0 5.9 5.8 5.7 5.7 5.7 5.7 5.8 5.7
4.5 4.8 4.7 4.7 5.0 5.1 5.3 5.3 5.2 5.7 5.8 5.6 5.5 5.6 5.5 5.7 6.0 6.3 6.5 6.4 6.5 6.4 6.4 6.5 6.5 6.6 6.7 6.7 6.8 6.7 6.6 6.2 5.8 5.4 5.4 5.4 5.5 5.6 5.6 5.8 5.9 5.8 5.8 5.7 5.6 5.5 5.5 5.6 5.7
5.1 4.8 4.7 4.6 4.7 4.6 4.6 5.1 4.8 5.1 5.8 5.8 5.4 5.3 5.6 5.4 5.5 5.8 6.0 6.4 6.4 6.8 6.5 6.3 6.4 6.4 6.5 6.5 6.7 6.6 6.5 6.4 6.3 5.6 5.6 5.3 5.3 5.6 5.8 5.8 5.8 5.7 5.7 5.7 5.7 5.8 5.6 5.6 5.6
5.0 4.9 4.9 4.5 4.3 4.1 4.3 4.6 4.9 5.0 5.4 5.5 5.5 5.0 5.1 5.3 5.5 5.7 5.9 6.2 6.2 6.5 6.6 6.5 6.4 6.3 6.4 6.5 6.5 6.5 6.6 6.4 6.1 6.2 5.5 5.5 5.6 5.9 6.0 6.0 5.8 5.7 5.7 5.7 5.7 5.8 5.8 5.6 5.5
4.6 4.3 3.9 4.3 4.1 4.0 3.5 4.4 4.8 4.9 4.7 5.1 5.4 5.3 4.7 5.0 4.9 5.5 5.8 6.0 6.1 5.9 6.2 6.5 6.4 6.5 6.4 6.5 6.5 6.6 6.6 6.6 6.3 6.0 6.0 6.1 6.0 6.2 6.3 6.2 6.1 5.9 5.9 5.8 5.9 5.9 5.7 5.5 5.5
4.1 3.6 3.8 3.9 4.6 4.0 3.8 3.5 3.7 4.2 4.7 4.4 5.0 5.4 5.3 4.7 4.7 4.7 4.9 5.5 6.0 5.9 5.8 6.3 6.3 6.5 6.4 6.4 6.5 6.6 6.5 6.6 6.6 5.8 5.8 5.9 6.0 6.1 6.2 6.1 6.2 6.2 5.9 5.8 5.8 5.8 5.8 5.7 5.7
3.3 3.3 3.5 3.6 3.8 4.4 4.0 4.0 3.6 3.7 4.1 4.7 4.9 5.1 5.4 5.2 4.9 5.1 5.1 4.8 5.2 5.8 5.9 5.9 6.2 6.3 6.3 6.0 6.1 6.2 6.1 6.2 6.4 6.2 6.0 6.1 6.4 6.3 6.2 6.1 6.3 6.2 5.9 5.5 5.6 5.7 5.7 5.7 5.7
3.4 3.5 3.3 3.7 3.9 3.2 3.3 4.0 4.0 4.2 4.1 4.2 4.7 4.8 5.0 5.0 5.2 5.1 5.1 5.2 5.1 5.1 5.5 5.5 5.9 6.4 6.3 6.3 6.4 6.4 6.5 6.3 6.5 6.7 6.5 6.5 6.3 6.2 6.3 6.3 6.4 6.2 5.9 5.6 5.7 5.7 5.6 5.5 5.6
3.8 3.4 3.5 3.5 3.8 3.2 3.7 3.7 4.0 4.6 5.0 4.6 4.9 5.1 4.8 4.9 5.0 4.8 4.6 5.2 5.1 5.2 5.1 5.3 5.6 6.1 6.5 6.5 6.5 6.1 6.4 6.4 6.2 6.5 6.4 6.4 6.5 6.4 6.3 6.3 6.3 6.1 5.8 5.6 5.5 5.5 5.6 5.6 5.3
4.0 3.4 3.2 3.2 3.5 3.9 3.5 3.3 3.8 5.1 4.7 4.5 4.1 4.2 4.7 4.9 5.0 5.0 4.6 4.7 5.2 5.4 5.2 5.0 5.3 6.0 6.3 6.4 6.3 6.4 6.1 5.9 6.1 6.2 6.4 6.5 6.5 6.4 6.2 6.1 6.2 5.9 5.6 5.7 5.6 5.6 5.6 5.5 4.9
3.8 4.3 4.6 4.5 3.6 3.1 3.6 2.7 5.1 5.2 4.7 4.7 4.5 3.9 3.9 4.1 4.4 4.9 4.9 4.8 4.9 5.1 5.7 5.4 5.4 5.4 5.8 5.9 6.1 6.5 6.2 6.0 6.3 6.5 5.9 6.0 6.1 6.2 5.9 6.0 6.0 5.9 5.7 5.6 5.6 5.5 5.4 5.4 5.0
5.5 5.8 6.4 6.3 6.0 4.5 5.2 3.2 6.7 5.5 5.2 4.9 4.5 4.5 4.3 4.0 4.1 4.2 4.5 4.6 4.7 4.9 5.5 6.0 5.8 5.4 5.3 5.5 6.3 6.4 6.3 6.0 6.2 6.3 5.5 5.9 5.9 5.8 5.6 5.8 5.8 5.6 5.7 5.5 5.4 5.3 4.9 5.3 5.4
6.9 7.0 7.9 7.8 7.3 6.4 7.0 6.0 7.3 6.4 6.1 5.5 4.9 4.7 4.5 4.5 4.3 4.2 4.3 4.5 4.7 4.6 5.3 5.7 5.9 5.6 5.4 5.3 6.0 6.4 6.1 6.2 6.1 6.1 6.4 6.3 5.9 5.5 5.3 5.3 5.3 5.3 5.2 5.3 4.9 4.9 5.1 5.3 5.1
7.1 7.1 5.9 6.0 5.2 5.5 7.8 7.3 7.8 7.7 6.9 6.4 5.8 5.1 5.0 4.7 4.6 4.6 4.6 4.7 4.6 4.7 4.9 5.3 5.6 5.5 5.6 5.3 5.8 6.1 6.6 6.2 5.7 5.9 6.0 6.1 5.8 5.5 5.4 5.3 5.2 5.0 4.9 4.8 5.0 5.4 5.1 4.6 4.3
6.8 6.9 6.9 6.9 5.6 6.5 7.1 6.6 8.3 7.6 7.2 7.2 6.8 6.2 5.6 5.2 4.6 4.7 4.7 4.7 4.8 4.7 5.2 4.5 5.2 5.7 6.0 5.9 5.7 5.9 6.7 6.2 6.0 5.5 5.5 5.8 5.8 5.8 5.2 5.1 5.0 5.0 4.8 5.0 5.1 5.0 4.5 4.2 4.1
6.9 6.7 6.8 6.8 6.9 6.0 6.7 7.4 7.5 7.3 7.2 7.2 7.4 7.2 6.5 5.7 5.2 5.2 4.6 4.4 4.6 4.7 4.7 5.0 4.7 4.9 5.6 5.3 5.3 5.4 6.7 6.0 6.1 5.8 5.3 5.3 5.7 5.4 5.0 4.8 4.7 4.9 4.9 5.0 4.8 4.6 4.0 4.1 4.0
6.6 6.5 6.6 6.6 6.4 6.2 6.4 6.9 6.9 6.9 6.6 6.4 6.5 6.7 6.4 6.4 6.1 5.6 5.4 5.0 4.5 4.7 4.9 4.8 4.9 4.9 4.7 5.4 5.3 5.8 6.1 5.9 6.1 5.9 6.0 5.5 5.4 4.5 4.4 4.6 4.9 5.1 4.7 4.1 3.9 4.2 4.1 3.9 3.7
6.7 6.3 6.2 6.0 6.1 6.7 5.9 6.6 6.9 5.7 5.3 4.8 5.3 5.7 6.0 6.2 6.5 6.4 5.7 5.5 5.3 4.6 5.0 4.9 5.1 4.9 4.6 4.6 4.8 5.5 5.1 5.5 5.9 6.2 5.9 5.5 4.9 4.4 4.5 4.9 4.8 4.5 3.9 4.0 4.2 4.0 4.1 4.0 3.6
6.3 5.9 5.9 5.8 6.2 6.0 5.9 5.8 6.6 6.1 5.2 4.7 4.8 4.7 4.8 5.7 6.4 6.5 6.2 5.9 5.8 5.3 5.2 5.0 5.2 5.3 4.9 4.9 5.0 5.7 4.9 5.6 6.0 6.0 5.8 4.9 4.8 5.1 5.2 4.9 3.9 3.8 4.2 4.1 4.1 4.2 4.0 3.7 4.0
Wind_Speed
18 17 2 3 2 3 3 6 3 4 5 5 5 5 7 3 4 4 4 6 14 15 21 24 26 25 24 22 20 19 19 19 19 18 19 18 18 17 18 17 17 16 15 15 15 14 14 13 12
13 5 3 1 3 2 5 5 4 2 3 1 3 3 3 2 2 6 9 8 17 17 21 21 25 26 24 23 21 19 18 19 19 18 18 16 16 17 15 16 15 15 15 14 14 13 13 11 10
6 2 2 3 3 5 5 4 2 3 2 2 2 4 4 6 2 10 6 15 15 14 21 20 24 25 24 23 22 21 19 18 18 18 17 17 16 13 17 16 15 15 15 15 14 13 12 10 9
3 3 3 2 7 7 8 6 4 4 2 1 4 3 1 5 9 8 15 17 16 14 18 20 24 26 24 24 24 22 20 19 18 17 16 16 15 14 15 15 15 16 15 14 13 12 10 9 9
3 2 1 4 6 6 5 4 4 5 3 2 3 5 4 4 4 17 17 15 17 13 17 20 21 26 24 23 22 24 21 19 18 17 17 16 16 16 16 14 14 14 13 13 12 10 9 8 8
2 2 1 5 6 7 7 6 4 6 5 3 4 7 5 2 8 14 15 14 16 15 18 19 21 23 25 24 23 23 22 20 19 18 18 18 16 17 15 15 14 14 12 11 10 9 8 7 9
3 2 4 5 5 5 6 4 3 9 6 6 7 6 0 3 6 9 13 11 12 13 14 17 18 21 24 24 24 23 22 21 21 19 18 19 17 16 15 14 14 13 11 10 9 8 8 8 12
2 3 3 4 8 10 6 4 4 3 7 0 7 6 5 7 9 9 10 11 11 11 12 12 17 16 18 20 26 25 23 22 22 21 19 19 18 16 14 13 12 12 10 10 10 8 9 12 17
2 3 5 7 8 9 6 3 6 3 4 1 1 6 3 14 9 8 8 7 9 10 12 11 12 16 15 17 22 26 26 24 23 21 23 19 16 17 16 15 13 11 11 10 9 7 8 15 19
3 4 6 4 5 5 7 2 6 5 6 2 2 4 9 14 14 17 15 13 14 14 13 14 11 13 18 17 17 17 17 16 15 17 19 16 17 16 15 15 14 12 12 12 12 11 12 18 15
3 5 5 8 9 10 12 12 4 3 6 7 7 9 12 12 13 16 14 15 18 15 12 14 14 15 16 13 16 14 14 13 12 17 18 16 14 16 15 13 12 11 11 11 14 15 16 16 13
6 6 4 6 10 9 10 10 8 7 7 7 8 9 14 15 18 18 16 15 14 15 15 14 15 15 15 16 13 15 13 13 12 14 17 14 10 10 10 9 11 11 12 11 14 14 16 16 15
2 7 12 10 10 9 10 8 9 15 8 9 6 8 13 14 18 15 15 10 10 13 11 12 14 17 14 14 12 13 12 15 16 14 16 17 12 8 10 9 10 10 12 14 11 12 12 13 14
6 7 11 7 13 7 11 13 3 2 7 10 4 9 11 14 18 14 8 12 13 14 13 11 14 14 14 13 13 9 13 14 16 17 16 17 15 11 9 8 7 9 13 15 13 12 10 10 12
7 6 7 3 6 5 13 13 19 8 9 13 13 8 11 13 14 14 17 17 17 13 13 15 15 13 14 15 13 10 14 15 12 15 22 20 19 15 12 7 6 10 13 15 15 14 13 10 12
5 3 6 11 7 6 7 11 18 9 9 12 14 10 9 12 14 16 16 16 18 16 15 14 14 16 15 13 12 9 14 14 14 14 17 18 19 18 13 7 7 13 12 13 11 6 6 6 6
5 5 9 8 9 5 2 12 9 19 13 15 12 12 8 7 9 14 17 16 15 19 18 16 16 17 16 14 11 11 13 10 14 15 13 15 15 16 13 9 10 15 11 9 8 4 6 6 5
8 7 5 10 7 18 17 24 10 11 17 20 17 13 11 11 9 8 16 15 15 18 19 18 15 16 16 10 7 7 7 5 10 9 9 13 13 15 13 11 12 12 8 6 6 8 4 6 7
6 6 10 14 14 9 13 25 21 17 18 20 18 17 16 11 9 8 9 15 16 18 18 18 17 18 13 10 9 6 8 3 3 4 9 13 13 14 11 8 8 8 7 9 9 8 11 4 8
8 9 9 10 7 11 16 23 24 22 21 19 18 17 15 14 9 11 9 11 14 17 21 21 20 18 16 12 10 5 5 3 3 4 7 9 12 11 11 8 6 6 7 8 8 11 5 4 4
6 5 6 13 15 11 10 10 7 13 7 7 9 13 13 15 14 11 9 10 14 18 19 20 22 20 18 16 8 6 6 5 3 3 4 4 11 12 12 11 9 5 4 5 6 6 6 7 2
6 5 12 17 11 6 6 7 13 9 9 6 8 10 11 9 11 10 9 7 11 15 15 21 22 20 17 18 14 19 12 8 3 3 4 5 10 12 12 13 12 8 6 6 5 4 5 7 5
10 11 15 16 15 7 3 3 9 4 5 7 8 12 12 12 10 10 12 13 13 14 14 15 19 20 18 18 17 14 13 7 7 7 10 7 8 14 11 14 14 9 8 7 8 8 8 6 4
8 9 15 2 1 3 4 4 9 2 3 5 9 9 10 13 13 13 13 12 11 13 14 14 17 18 18 18 18 20 16 13 10 9 8 5 6 6 11 15 14 14 12 9 9 10 11 8 7
11 4 4 6 3 6 2 2 10 1 2 5 9 14 14 9 12 12 11 13 11 8 15 16 17 19 17 18 17 17 17 18 17 15 10 11 8 7 7 12 11 10 14 15 16 9 10 8 7
5 2 3 5 3 12 8 6 5 4 1 6 9 12 14 16 12 13 9 11 11 9 8 17 19 18 16 18 17 13 16 11 10 11 11 9 9 8 11 13 15 16 16 17 16 9 6 8 7
5 2 7 5 3 4 3 6 3 5 14 23 24 22 20 17 17 17 13 9 11 12 9 12 16 18 18 18 14 15 14 15 13 15 13 10 12 11 13 16 13 15 15 14 13 8 9 7 6
4 2 4 3 5 5 4 5 5 11 18 19 23 23 21 20 17 18 14 12 9 12 10 13 17 18 17 16 14 13 15 15 16 15 16 16 14 14 12 12 13 12 13 14 12 9 7 7 5
5 4 2 3 4 4 6 4 3 9 21 21 23 23 24 23 21 19 16 14 14 15 13 12 16 14 14 14 13 14 14 16 15 15 16 16 16 15 13 12 11 11 11 12 8 7 7 8 7
4 1 1 3 4 5 5 7 5 20 18 18 23 22 21 21 18 16 14 15 13 9 11 10 14 15 14 14 16 15 16 15 17 17 18 17 17 15 12 12 12 10 10 8 8 9 7 8 7
Wind_Direction
323 315 291 26 68 70 253 256 307 301 164 322 314 142 146 71 142 200 122 144 131 149 159 159 158 158 151 148 146 147 150 145 136 139 135 135 130 126 130 133 128 118 120 111 109 104 99 95 91
315 313 35 83 121 156 268 241 240 225 257 187 235 93 63 128 135 112 121 160 143 149 156 162 161 154 152 149 147 154 149 151 144 141 137 136 133 139 131 122 114 118 116 115 113 109 104 96 85
308 209 73 160 183 199 195 229 125 232 209 182 97 54 149 168 131 158 154 147 143 149 155 161 159 155 155 156 151 157 152 155 144 144 142 137 137 135 116 118 123 125 124 121 116 109 100 91 78
332 8 14 164 228 253 188 220 352 281 279 200 122 68 341 245 155 163 145 142 143 149 156 160 163 159 161 161 156 155 157 154 153 149 147 143 137 128 133 129 124 121 122 118 112 105 99 90 75
27 65 241 243 246 264 268 239 256 265 267 222 156 194 159 332 114 137 144 147 146 151 153 161 161 163 163 162 159 157 158 159 156 152 148 144 142 142 140 134 127 124 120 115 110 107 103 93 77
337 102 184 241 253 264 283 239 242 232 231 259 122 143 193 148 138 152 150 152 152 152 156 161 165 169 166 165 160 161 161 163 161 157 151 148 148 145 148 139 137 134 127 123 116 111 104 87 76
169 128 228 229 260 279 263 305 215 224 219 215 147 148 249 208 183 145 149 143 152 153 155 163 166 170 169 167 162 164 165 163 160 161 155 147 153 152 150 148 145 139 135 129 123 115 96 86 88
194 147 242 227 238 257 255 334 293 292 254 129 151 181 202 213 175 134 137 143 147 155 160 164 167 163 169 167 166 167 167 168 161 162 156 155 155 154 153 153 153 146 138 129 125 121 98 76 102
284 229 218 224 217 252 289 320 326 282 251 259 13 149 215 149 139 134 127 143 154 164 165 167 168 168 160 162 170 171 171 171 166 161 160 158 157 158 160 163 160 151 148 131 121 122 119 86 94
192 230 232 244 240 269 300 336 337 325 301 270 5 8 133 148 162 170 172 173 172 174 176 171 171 172 171 165 170 167 166 169 163 158 156 160 164 167 169 173 167 163 151 137 124 105 128 107 100
288 242 295 283 301 326 307 302 233 243 280 240 226 184 165 165 177 183 186 184 180 171 174 178 171 173 177 172 164 161 163 164 162 161 161 168 173 174 176 177 176 169 149 124 116 103 100 107 104
326 337 30 318 327 320 318 317 293 221 223 273 320 217 168 180 184 189 190 181 176 179 179 173 175 174 179 173 166 164 163 165 168 172 171 165 167 176 180 179 181 168 157 129 122 108 103 99 97
232 346 324 312 298 296 290 275 266 276 280 295 297 183 198 194 199 201 198 181 163 182 186 176 169 179 173 169 172 173 173 172 170 177 182 174 173 183 181 182 179 178 165 143 129 113 101 92 88
307 287 289 301 298 266 271 278 247 356 299 286 217 212 221 210 203 199 179 198 185 180 185 176 174 174 173 174 171 177 180 178 173 177 187 184 180 185 177 176 177 153 154 148 131 121 109 94 98
284 313 317 312 340 298 324 272 259 247 269 285 272 213 224 220 219 205 199 194 201 194 180 181 175 173 177 174 171 175 181 177 184 185 180 192 183 181 171 166 162 160 149 133 116 106 103 97 96
326 19 2 318 343 299 27 281 310 344 350 314 311 281 239 230 217 213 216 203 198 187 184 184 182 178 178 177 175 177 182 177 190 195 187 191 188 174 162 163 163 148 143 136 127 123 102 97 103
17 311 318 313 310 298 222 293 294 312 309 297 293 295 299 305 271 222 219 210 196 194 183 182 186 184 178 179 179 177 187 177 183 188 185 186 184 168 162 163 147 145 140 134 134 109 118 118 106
301 307 283 287 296 304 296 288 289 292 295 290 290 284 280 280 264 265 231 211 199 199 192 181 180 179 179 169 169 162 170 167 172 177 171 165 158 157 155 145 141 145 138 117 116 120 104 127 126
261 273 282 285 280 294 287 288 291 289 275 274 267 273 274 259 271 270 242 226 208 192 192 183 180 182 175 176 168 167 168 127 86 99 142 149 156 144 145 132 130 134 145 142 135 121 125 113 129
290 293 289 288 283 300 294 284 283 275 271 265 269 268 266 271 260 261 261 220 205 199 188 186 185 177 180 177 179 159 137 82 105 96 85 114 123 125 120 131 130 123 126 130 140 146 134 119 165
300 258 280 287 311 286 299 299 332 293 258 267 264 264 261 250 254 252 241 228 201 201 195 188 185 180 177 170 128 104 93 92 91 84 79 58 101 104 109 114 113 109 108 134 131 138 131 150 73
292 273 292 297 318 307 73 295 284 288 312 352 333 333 314 279 261 247 227 233 203 201 205 193 186 179 177 157 156 163 172 165 139 112 100 79 86 92 99 106 102 96 98 101 100 100 109 120 118
264 284 286 286 285 295 14 242 272 303 312 347 348 345 339 347 356 334 302 240 213 190 198 205 191 185 175 167 166 169 174 147 127 117 106 100 84 86 84 98 98 95 93 86 94 88 83 83 90
292 318 307 357 218 260 254 152 278 291 309 328 328 335 339 334 333 332 326 313 231 196 188 192 191 188 173 168 172 175 152 145 135 131 119 111 92 87 92 93 94 94 94 93 89 82 80 85 88
17 3 332 348 4 224 265 292 246 44 1 323 322 332 333 331 328 326 327 330 336 239 193 182 188 187 176 166 175 174 158 157 156 150 143 137 121 108 107 104 102 98 98 96 96 88 87 83 86
314 122 276 294 288 292 276 231 271 111 334 305 320 321 322 334 329 315 313 313 310 323 252 190 183 185 166 167 175 156 156 154 151 148 141 131 124 117 110 103 100 97 96 92 92 91 92 87 73
289 340 277 266 242 266 269 293 268 6 355 349 339 339 328 322 321 314 313 297 293 297 297 208 191 186 172 171 159 155 151 144 143 133 126 122 117 115 110 105 99 93 91 93 101 88 91 99 108
204 320 333 3 299 294 276 277 257 4 346 333 329 325 318 315 314 311 308 298 282 279 271 263 191 186 171 166 155 152 141 136 134 131 129 123 118 112 109 104 101 98 95 86 88 99 108 103 91
338 332 12 272 239 291 322 265 161 345 339 330 327 322 319 315 311 308 303 296 291 276 260 253 192 167 146 142 137 132 128 128 124 122 118 118 114 110 107 107 107 107 98 103 104 112 102 97 95
222 84 295 249 314 269 255 272 175 341 330 327 322 317 317 312 307 304 297 299 286 271 233 171 139 134 129 126 120 116 117 119 118 118 117 117 109 109 110 107 104 109 108 119 117 105 105 110 107